DM4SB-4 Weather Reports


time (UTC)temp
C
wind
direction
speed
KPH
gust
KPH
rain 1hr
cm
rain 24hr
cm
rain mn
cm
humidity
%
barometer
mb
20260505083033 18 227 0.0 0.0 0.00 0.00 0.00 69 1005.8
20260505082033 18 232 0.0 0.0 0.00 0.00 0.00 69 1005.7
20260505081034 18 228 0.0 0.0 0.00 0.00 0.00 70 1005.8
20260505080034 17 253 0.0 0.0 0.00 0.00 0.00 69 1005.7
20260505075033 18 227 0.0 1.6 0.00 0.00 0.00 66 1005.8
20260505074033 18 237 0.0 1.6 0.00 0.00 0.00 66 1006.1
20260505073033 18 323 0.0 1.6 0.00 0.00 0.00 65 1006.0
20260505072033 17 155 0.0 0.0 0.00 0.00 0.00 70 1006.1
20260505071034 18 134 0.0 1.6 0.00 0.00 0.00 71 1006.0
20260505070034 17 227 0.0 1.6 0.00 0.00 0.00 74 1006.2
20260505065033 16 223 0.0 0.0 0.00 0.00 0.00 79 1006.2
20260505064033 16 223 0.0 0.0 0.00 0.00 0.00 78 1006.1
20260505063033 15 223 0.0 0.0 0.00 0.00 0.00 78 1006.3
20260505062034 15 220 0.0 1.6 0.00 0.00 0.00 82 1006.2
20260505061034 13 216 0.0 0.0 0.00 0.00 0.00 86 1006.3
20260505060033 12 216 0.0 0.0 0.00 0.00 0.00 88 1006.3
20260505055033 10 211 0.0 0.0 0.00 0.00 0.00 95 1006.6
20260505054033 10 187 0.0 0.0 0.00 0.00 0.00 97 1006.5
20260505053033 9 187 0.0 0.0 0.00 0.00 0.00 97 1006.6
20260505052034 8 187 0.0 0.0 0.00 0.00 0.00 97 1006.6
20260505051034 8 144 0.0 0.0 0.00 0.00 0.00 98 1006.4
20260505041033 6 108 0.0 0.0 0.00 0.00 0.00 97 1006.6
20260505040033 6 109 0.0 0.0 0.00 0.00 0.00 97 1006.6
20260505035033 6 109 0.0 0.0 0.00 0.00 0.00 97 1006.6
20260505034034 6 109 0.0 0.0 0.00 0.00 0.00 97 1006.7
20260505033033 7 109 0.0 0.0 0.00 0.00 0.00 97 1007.0
20260505032033 7 109 0.0 0.0 0.00 0.00 0.00 97 1007.1
20260505031033 7 109 0.0 0.0 0.00 0.00 0.00 96 1007.2
20260505030033 7 109 0.0 0.0 0.00 0.00 0.00 96 1007.4
20260505025033 7 109 0.0 0.0 0.00 0.00 0.00 96 1007.5
20260505024034 7 109 0.0 0.0 0.00 0.00 0.00 96 1007.6
20260505023034 7 120 0.0 0.0 0.00 0.00 0.00 96 1007.6
20260505022033 7 122 0.0 0.0 0.00 0.00 0.00 95 1007.7
20260505021034 7 122 0.0 0.0 0.00 0.00 0.00 95 1007.9
20260505020034 8 122 0.0 0.0 0.00 0.00 0.00 95 1008.0
20260505015034 8 123 0.0 0.0 0.00 0.00 0.00 95 1007.8
20260505014033 7 123 0.0 0.0 0.00 0.00 0.00 93 1008.1
20260505013033 8 123 0.0 0.0 0.00 0.00 0.00 94 1008.2
20260505012034 8 123 0.0 0.0 0.00 0.00 0.00 93 1008.4
20260505011034 8 123 0.0 0.0 0.00 0.00 0.00 93 1008.4
20260505010033 8 122 0.0 0.0 0.00 0.00 0.00 92 1008.5
20260505005033 9 134 0.0 0.0 0.00 0.00 0.00 92 1008.5
20260505004033 9 138 0.0 0.0 0.00 0.00 0.00 92 1008.5
20260505003033 9 169 0.0 0.0 0.00 0.00 0.00 91 1008.6
20260505002034 10 169 0.0 0.0 0.00 0.00 0.00 90 1008.5
20260505001034 10 169 0.0 0.0 0.00 0.00 0.00 87 1008.5
20260505000033 11 170 0.0 0.0 0.00 0.00 0.00 86 1008.2
20260504235033 11 131 0.0 0.0 0.00 0.00 0.00 85 1008.4
20260504234033 11 121 0.0 1.6 0.00 0.00 0.00 84 1008.5
20260504233034 11 120 1.6 3.2 0.00 0.00 0.00 84 1008.7
20260504232034 11 111 0.0 1.6 0.00 0.00 0.00 85 1008.7
20260504231033 11 118 0.0 1.6 0.00 0.00 0.00 88 1008.8
20260504230033 10 117 0.0 0.0 0.00 0.00 0.00 89 1008.9
20260504225033 11 128 0.0 1.6 0.00 0.00 0.00 89 1009.2
20260504224033 11 125 0.0 1.6 0.00 0.00 0.00 89 1008.9
20260504223033 11 109 0.0 0.0 0.00 0.00 0.00 89 1009.1
20260504222033 11 149 0.0 0.0 0.00 0.00 0.00 90 1009.3
20260504221033 11 120 0.0 0.0 0.00 0.00 0.00 91 1009.1
20260504220034 11 132 0.0 0.0 0.00 0.00 0.00 90 1009.4
20260504215034 11 122 0.0 0.0 0.00 0.00 0.03 89 1009.5
20260504214034 12 161 0.0 0.0 0.00 0.00 0.03 89 1009.7
20260504213033 12 121 0.0 1.6 0.03 0.00 0.03 87 1009.5
20260504212033 12 132 0.0 1.6 0.03 0.00 0.03 88 1009.9
20260504211033 12 155 0.0 0.0 0.03 0.00 0.03 86 1009.9
20260504210033 12 155 0.0 0.0 0.03 0.00 0.03 86 1009.9
20260504205034 12 108 0.0 3.2 0.03 0.00 0.03 85 1010.2
20260504204034 12 139 0.0 1.6 0.03 0.00 0.03 84 1010.4
20260504203033 13 138 0.0 1.6 0.00 0.00 0.00 80 1010.4
20260504202033 13 171 0.0 0.0 0.00 0.00 0.00 80 1010.5
20260504201033 14 147 0.0 0.0 0.00 0.00 0.00 76 1010.4
20260504200033 15 129 0.0 0.0 0.00 0.00 0.00 75 1010.3
20260504195033 15 223 0.0 0.0 0.00 0.00 0.00 72 1010.1
20260504194034 15 137 0.0 0.0 0.00 0.00 0.00 70 1009.8
20260504193034 16 108 0.0 3.2 0.00 0.00 0.00 66 1009.4
20260504192033 16 135 0.0 0.0 0.00 0.00 0.00 65 1009.6
20260504191034 16 125 0.0 1.6 0.00 0.00 0.00 64 1009.5
20260504190033 16 111 0.0 1.6 0.00 0.00 0.00 64 1009.4
20260504185034 16 95 0.0 1.6 0.00 0.00 0.00 64 1009.4
20260504184033 16 124 0.0 6.4 0.00 0.00 0.00 64 1009.3
20260504183034 16 128 0.0 3.2 0.00 0.00 0.00 63 1009.3
20260504182033 17 116 4.8 4.8 0.00 0.00 0.00 62 1009.4
20260504181034 17 105 3.2 9.7 0.00 0.00 0.00 61 1008.9
20260504180033 17 134 1.6 3.2 0.00 0.00 0.00 61 1009.1
20260504175034 17 102 1.6 3.2 0.00 0.00 0.00 59 1008.9
20260504174033 17 124 0.0 9.7 0.00 0.00 0.00 59 1009.1
20260504173033 18 104 3.2 6.4 0.00 0.00 0.00 57 1009.1
20260504172033 18 123 6.4 8.0 0.00 0.00 0.00 56 1009.0
20260504171034 18 154 0.0 6.4 0.00 0.00 0.00 53 1008.8
20260504151033 22 139 0.0 0.0 0.00 0.00 0.00 41 1009.5
20260504141034 20 179 0.0 1.6 0.00 0.00 0.00 45 1009.6